カタログに戻る

ARIANE 1 DEB

運用中HEO
NORAD 40778·DEBRIS·🇫🇷 France

打ち上げ Dec 24, 1979 から Guiana Space Centre

Loading…

次のパス (今後24時間)

TLE

経年Source: Space-Track

元期: Aug 28, 2026, 13:11 UTC

1 40778U 79104AF  26240.54951310  .00000150  00000-0  30614-3 0  9992
2 40778  18.0202  13.4139 4828834 265.2671  66.1646  5.58150400258549

AllMySatでARIANE 1 DEBをリアルタイム追跡

Download on the App Store